Hourly Data Report for July 22, 2004

TORONTO CITY
ONTARIO

43°40'00.000" N
79°24'00.000" W
112.50 m
6158355
71508
XTO

Download Data

Hourly Data (July 2004)
Hourly Data Report for July 22, 2004
TIME
LST
Temp Definition
°C
Dew Point Definition
°C
Rel Hum Definition
%
Precip. Amount Definition
mm

Wind Dir Definition
10's deg

Wind Spd Definition
km/h
Visibility Definition
km
Stn Press Definition
kPa
Hmdx Definition


Wind Chill Definition


Weather Definition


00:00 23.4 21.1 87   LegendMM LegendMM LegendMM 99.62 32   LegendNANA
01:00 23.0 21.1 89   LegendMM LegendMM LegendMM 99.61 32   LegendNANA
02:00 22.7 21.2 91   LegendMM LegendMM LegendMM 99.55 31   LegendNANA
03:00 22.8 21.2 91   LegendMM LegendMM LegendMM 99.47 31   LegendNANA
04:00 22.9 21.1 90   LegendMM LegendMM LegendMM 99.46 31   LegendNANA
05:00 22.8 21.0 90   LegendMM LegendMM LegendMM 99.42 31   LegendNANA
06:00 22.9 21.0 89   LegendMM LegendMM LegendMM 99.41 31   LegendNANA
07:00 23.3 21.1 87   LegendMM LegendMM LegendMM 99.41 32   LegendNANA
08:00 23.0 21.1 89   LegendMM LegendMM LegendMM 99.43 32   LegendNANA
09:00 23.8 21.7 88   LegendMM LegendMM LegendMM 99.44 33   LegendNANA
10:00 25.5 22.6 84   LegendMM LegendMM LegendMM 99.41 35   LegendNANA
11:00 27.0 22.3 76   LegendMM LegendMM LegendMM 99.38 37   LegendNANA
12:00 27.6 22.4 73   LegendMM LegendMM LegendMM 99.43 37   LegendNANA
13:00 27.6 22.5 74   LegendMM LegendMM LegendMM 99.40 37   LegendNANA
14:00 27.9 23.1 75   LegendMM LegendMM LegendMM 99.39 38   LegendNANA
15:00 28.6 23.2 73   LegendMM LegendMM LegendMM 99.35 39   LegendNANA
16:00 29.0 22.7 69   LegendMM LegendMM LegendMM 99.35 39   LegendNANA
17:00 27.9 22.7 73   LegendMM LegendMM LegendMM 99.35 38   LegendNANA
18:00 26.7 22.9 80   LegendMM LegendMM LegendMM 99.33 37   LegendNANA
19:00 26.7 22.7 79   LegendMM LegendMM LegendMM 99.34 37   LegendNANA
20:00 24.1 21.0 83   LegendMM LegendMM LegendMM 99.42 33   LegendNANA
21:00 23.5 22.8 96   LegendMM LegendMM LegendMM 99.53 34   LegendNANA
22:00 24.7 23.2 91   LegendMM LegendMM LegendMM 99.56 35   LegendNANA
23:00 23.4 20.7 85   LegendMM LegendMM LegendMM 99.61 32   LegendNANA

Notes on Data Quality.

Legend

  • E = Estimated
  • M = Missing
  • NA = Not Available*
  • [empty] = Indicates an unobserved value
Date modified: